Daviess Cnty AP, Washington,, IN

12:53 PM EDT on October 22, 2019 (GMT -0400)
Daviess County

Weather History for KDCY - June, 2019

Change the Weather History Date:

Tuesday, June 4, 2019

  Actual Average (KLWV) Record (KLWV)
Temperature  
Mean Temperature 70 °F -  
Max Temperature 83 °F 76 °F 100 °F (2011)
Min Temperature 56 °F 58 °F 51 °F (2003)
Cooling Degree Days 4    
Growing Degree Days 20 (Base 50)    
Moisture  
Dew Point 56 °F    
Average Humidity 65    
Maximum Humidity 99    
Minimum Humidity 36    
Precipitation  
Precipitation 0.00 in - - ()
Sea Level Pressure  
Sea Level Pressure 30.02 in    
Wind  
Wind Speed 5 mph (South)    
Max Wind Speed 15 mph    
Max Gust Speed 20 mph    
Visibility 10 miles    
Events      
Averages and records for this station are not official NWS values.
T = Trace of Precipitation, MM = Missing Value Source: NWS Daily Summary

Daily Weather History Graph

Daily Weather History Graph

Search for Another Location

Airport or City:

Astronomy

Jun. 04, 2019 Rise Set
Actual Time 6:24 AM EDT 9:09 PM EDT
Civil Twilight 5:53 AM EDT 9:40 PM EDT
Nautical Twilight 5:13 AM EDT 10:20 PM EDT
Astronomical Twilight 4:29 AM EDT 11:04 PM EDT
Moon 7:33 AM EDT (6/4) 10:37 PM EDT (6/4)
Length of Visible Light 15h 47m
Length of Day
14h 44m
New Moon, 2% of the Moon is Illuminated
Jun 4
New Moon
Jun 10
First Quarter
Jun 17
Full
Jun 25
Last Quarter
Jul 2
New

Hourly Weather History & Observations

Time (EDT) Temp. Heat Index Dew Point Humidity Pressure Visibility Wind Dir Wind Speed Gust Speed Precip Events Conditions
12:15 AM 61.9 °F - 58.1 °F 87% 30.10 in 10.0 mi SSE 4.6 mph - N/A   Clear
12:35 AM 61.5 °F - 57.0 °F 85% 30.10 in 10.0 mi South 4.6 mph - N/A   Clear
12:55 AM 61.0 °F - 56.8 °F 86% 30.11 in 10.0 mi South 3.5 mph - N/A   Clear
1:15 AM 61.3 °F - 56.5 °F 84% 30.11 in 10.0 mi Calm Calm - N/A   Clear
1:35 AM 61.5 °F - 56.8 °F 85% 30.11 in 10.0 mi ESE 3.5 mph - N/A   Clear
1:55 AM 60.4 °F - 57.2 °F 89% 30.11 in 10.0 mi SE 3.5 mph - N/A   Clear
2:15 AM 60.1 °F - 57.4 °F 91% 30.11 in 10.0 mi SE 3.5 mph - N/A   Clear
2:35 AM 59.9 °F - 58.5 °F 95% 30.10 in 10.0 mi Calm Calm - N/A   Clear
2:55 AM 59.5 °F - 58.1 °F 95% 30.10 in 10.0 mi SSE 3.5 mph - N/A   Clear
3:15 AM 59.7 °F - 57.7 °F 93% 30.10 in 10.0 mi Calm Calm - N/A   Clear
3:35 AM 59.7 °F - 57.7 °F 93% 30.10 in 10.0 mi Calm Calm - N/A   Clear
3:55 AM 59.0 °F - 58.1 °F 97% 30.10 in 10.0 mi Calm Calm - N/A   Clear
4:15 AM 57.2 °F - 56.8 °F 99% 30.08 in 10.0 mi Calm Calm - N/A   Clear
4:35 AM 56.7 °F - 56.5 °F 99% 30.08 in 10.0 mi Calm Calm - N/A   Clear
4:55 AM 58.3 °F - 56.8 °F 95% 30.08 in 10.0 mi Calm Calm - N/A   Clear
5:15 AM 56.8 °F - 55.9 °F 97% 30.08 in 10.0 mi Calm Calm - N/A   Clear
5:35 AM 57.6 °F - 55.8 °F 94% 30.07 in 10.0 mi SSE 3.5 mph - N/A   Clear
5:55 AM 57.9 °F - 54.9 °F 90% 30.07 in 10.0 mi Calm Calm - N/A   Clear
6:15 AM 57.7 °F - 55.0 °F 91% 30.08 in 10.0 mi Calm Calm - N/A   Clear
6:35 AM 56.8 °F - 55.4 °F 95% 30.08 in 10.0 mi Calm Calm - N/A   Clear
6:55 AM 57.4 °F - 55.0 °F 92% 30.09 in 10.0 mi Calm Calm - N/A   Clear
7:15 AM 57.6 °F - 56.5 °F 96% 30.08 in 10.0 mi SE 3.5 mph - N/A   Clear
7:35 AM 58.1 °F - 57.4 °F 97% 30.08 in 10.0 mi Calm Calm - N/A   Clear
7:55 AM 59.9 °F - 56.3 °F 88% 30.09 in 10.0 mi South 3.5 mph - N/A   Clear
8:15 AM 61.2 °F - 55.2 °F 81% 30.10 in 10.0 mi Calm Calm - N/A   Clear
8:35 AM 62.6 °F - 53.6 °F 72% 30.10 in 10.0 mi South 5.8 mph - N/A   Clear
8:55 AM 63.9 °F - 53.2 °F 68% 30.10 in 10.0 mi SSE 6.9 mph - N/A   Clear
9:15 AM 65.8 °F - 52.2 °F 61% 30.10 in 10.0 mi South 9.2 mph - N/A   Clear
9:35 AM 67.5 °F - 52.5 °F 59% 30.10 in 10.0 mi South 10.4 mph - N/A   Clear
9:55 AM 68.5 °F - 52.2 °F 56% 30.10 in 10.0 mi South 10.4 mph - N/A   Clear
10:15 AM 70.0 °F - 52.0 °F 53% 30.08 in 10.0 mi South 11.5 mph - N/A   Clear
10:35 AM 71.1 °F - 51.8 °F 50% 30.08 in 10.0 mi SSE 10.4 mph - N/A   Clear
10:55 AM 73.0 °F - 52.5 °F 48% 30.07 in 10.0 mi SSE 10.4 mph - N/A   Clear
11:15 AM 73.8 °F - 50.9 °F 45% 30.07 in 10.0 mi SSE 10.4 mph - N/A   Clear
11:35 AM 74.7 °F - 50.5 °F 43% 30.06 in 10.0 mi SSE 10.4 mph - N/A   Clear
11:55 AM 76.6 °F - 49.1 °F 38% 30.06 in 10.0 mi SSE 15.0 mph 19.6 mph N/A   Clear
12:15 PM 75.4 °F - 48.4 °F 38% 30.06 in 10.0 mi South 10.4 mph - N/A   Clear
12:35 PM 76.3 °F - 49.3 °F 39% 30.05 in 10.0 mi South 11.5 mph - N/A   Clear
12:55 PM 76.1 °F - 50.2 °F 40% 30.05 in 10.0 mi SSE 10.4 mph 18.4 mph N/A   Clear
1:15 PM 75.7 °F - 51.1 °F 42% 30.04 in 10.0 mi SSE 8.1 mph - N/A   Clear
1:35 PM 76.3 °F - 51.1 °F 41% 30.03 in 10.0 mi South 9.2 mph - N/A   Clear
1:55 PM 77.4 °F - 50.5 °F 39% 30.02 in 10.0 mi South 9.2 mph - N/A   Clear
2:15 PM 78.1 °F - 51.1 °F 39% 30.02 in 10.0 mi SSE 8.1 mph - N/A   Clear
2:35 PM 79.9 °F - 51.1 °F 37% 30.01 in 10.0 mi South 9.2 mph - N/A   Clear
2:55 PM 79.7 °F - 51.4 °F 37% 30.00 in 10.0 mi SSE 9.2 mph - N/A   Clear
3:15 PM 80.8 °F - 51.8 °F 36% 29.99 in 10.0 mi South 9.2 mph - N/A   Clear
3:35 PM 81.5 °F 80.8 °F 53.6 °F 38% 29.99 in 10.0 mi South 9.2 mph - N/A   Clear
3:55 PM 82.2 °F 81.4 °F 54.3 °F 38% 29.98 in 10.0 mi South 10.4 mph - N/A   Clear
4:15 PM 82.6 °F 81.8 °F 55.0 °F 39% 29.97 in 10.0 mi South 10.4 mph 17.3 mph N/A   Clear
4:35 PM 82.4 °F 81.7 °F 55.0 °F 39% 29.96 in 10.0 mi South 11.5 mph - N/A   Scattered Clouds
4:55 PM 83.1 °F 82.4 °F 56.5 °F 40% 29.95 in 10.0 mi South 11.5 mph 16.1 mph N/A   Scattered Clouds
5:15 PM 82.4 °F 82.0 °F 56.8 °F 42% 29.95 in 10.0 mi South 12.7 mph - N/A   Scattered Clouds
5:35 PM 82.6 °F 82.5 °F 58.5 °F 44% 29.94 in 10.0 mi South 10.4 mph - N/A   Clear
5:55 PM 82.2 °F 82.1 °F 58.3 °F 44% 29.92 in 10.0 mi SSW 11.5 mph - N/A   Clear
6:15 PM 80.8 °F 81.2 °F 58.6 °F 47% 29.91 in 10.0 mi SSW 10.4 mph - N/A   Clear
6:35 PM 82.2 °F 82.4 °F 59.5 °F 46% 29.91 in 10.0 mi South 10.4 mph - N/A   Clear
6:55 PM 82.2 °F 82.6 °F 59.9 °F 47% 29.91 in 10.0 mi South 10.4 mph - N/A   Clear
7:15 PM 81.5 °F 81.8 °F 59.7 °F 47% 29.90 in 10.0 mi SSW 8.1 mph - N/A   Clear
7:35 PM 81.0 °F 81.7 °F 60.6 °F 50% 29.89 in 10.0 mi South 10.4 mph 16.1 mph N/A   Clear
7:55 PM 79.5 °F - 61.0 °F 53% 29.88 in 10.0 mi South 8.1 mph 11.5 mph N/A   Clear
8:15 PM 78.6 °F - 61.3 °F 55% 29.87 in 10.0 mi South 8.1 mph - N/A   Clear
8:35 PM 77.4 °F - 61.9 °F 59% 29.87 in 10.0 mi South 5.8 mph - N/A   Clear
8:55 PM 76.5 °F - 62.1 °F 61% 29.87 in 10.0 mi South 6.9 mph - N/A   Clear
9:15 PM 76.1 °F - 62.2 °F 62% 29.87 in 10.0 mi South 6.9 mph - N/A   Clear
9:35 PM 75.4 °F - 62.6 °F 64% 29.87 in 10.0 mi South 6.9 mph - N/A   Clear
9:55 PM 76.1 °F - 62.8 °F 63% 29.88 in 10.0 mi SSW 9.2 mph - N/A   Clear
10:15 PM 76.1 °F - 63.0 °F 64% 29.88 in 10.0 mi SSW 9.2 mph - N/A   Clear
10:35 PM 75.9 °F - 63.5 °F 65% 29.89 in 10.0 mi SSW 9.2 mph - N/A   Mostly Cloudy
10:55 PM 75.7 °F - 64.0 °F 67% 29.89 in 10.0 mi SSW 8.1 mph - N/A   Overcast
11:15 PM 75.2 °F - 64.4 °F 69% 29.89 in 10.0 mi SSW 8.1 mph - N/A   Scattered Clouds
11:55 PM 74.7 °F - 64.8 °F 71% 29.88 in 10.0 mi South 8.1 mph - N/A   Mostly Cloudy